This is the latest recevied weather packets stored in our database for station/object KI4HRG. If no packets are shown the sender has not sent any weather packets the latest 10 day(s).
| Time | Temp. | Humidity | Pressure | Rain* | Wind** | Luminosity | Snow |
|---|---|---|---|---|---|---|---|
| 1787863291 | 30° C | 72% | 1013.9 hPa | 0 mm | - | 236 W/m² | - |
| 1787862987 | 30° C | 71% | 1014 hPa | 0 mm | - | 243 W/m² | - |
| 1787862682 | 30° C | 72% | 1014.2 hPa | 0 mm | - | 262 W/m² | - |
| 1787862377 | 30.56° C | 71% | 1014.2 hPa | 0 mm | - | 284 W/m² | - |
| 1787862073 | 30.56° C | 71% | 1014.2 hPa | 0 mm | - | 583 W/m² | - |
| 1787861772 | 30° C | 72% | 1014.2 hPa | 0 mm | - | 332 W/m² | - |
| 1787861470 | 30° C | 72% | 1014.3 hPa | 0 mm | - | 306 W/m² | - |
| 1787861165 | 30° C | 73% | 1014.4 hPa | 0 mm | - | 236 W/m² | - |
| 1787860864 | 29.44° C | 75% | 1014.8 hPa | 0 mm | - | 246 W/m² | - |
| 1787860559 | 30° C | 73% | 1014.7 hPa | 0 mm | - | 287 W/m² | - |
| 1787860254 | 29.44° C | 74% | 1014.7 hPa | 0 mm | - | 340 W/m² | - |
| 1787859949 | 29.44° C | 74% | 1014.8 hPa | 0 mm | - | 252 W/m² | - |
| 1787859645 | 30° C | 73% | 1014.7 hPa | 0 mm | - | 245 W/m² | - |
| 1787859344 | 30° C | 74% | 1014.9 hPa | 0 mm | - | 269 W/m² | - |
| 1787859041 | 29.44° C | 74% | 1015.1 hPa | 0 mm | - | 275 W/m² | - |
| 1787858736 | 29.44° C | 74% | 1015.1 hPa | 0 mm | - | 254 W/m² | - |
| 1787858432 | 29.44° C | 75% | 1015.1 hPa | 0 mm | - | 238 W/m² | - |
| 1787858131 | 29.44° C | 75% | 1015.1 hPa | 0 mm | - | 236 W/m² | - |
| 1787857827 | 30° C | 74% | 1015.4 hPa | 0 mm | - | 236 W/m² | - |
| 1787857522 | 29.44° C | 72% | 1015.1 hPa | 0 mm | - | 278 W/m² | - |
| 1787857221 | 30° C | 74% | 1015.3 hPa | 0 mm | - | 266 W/m² | - |
| 1787856916 | 29.44° C | 73% | 1015.4 hPa | 0 mm | - | 284 W/m² | - |
| 1787856615 | 29.44° C | 73% | 1015.4 hPa | 0 mm | - | 278 W/m² | - |
| 1787856310 | 29.44° C | 72% | 1015.3 hPa | 0 mm | - | 291 W/m² | - |
| 1787856006 | 30° C | 71% | 1015.4 hPa | 0 mm | - | 275 W/m² | - |
* Rain latest hour (hover to see other rain measurements)
** Current wind speed in m/s (hover to see current wind gust speed)